[Iaude] MPEC T106: 2005 CE41 = 2016 TA19 [a=1.78, e=0.52, i=2.8, H=23.8]

mpec at si.edu mpec at si.edu
Tue Oct 11 09:37:58 EDT 2016


M.P.E.C. 2016-T106                               Issued 2016 Oct. 11, 13:31 UT
 
     The Minor Planet Electronic Circulars contain information on unusual
         minor planets and routine data on comets.  They are published
    on behalf of Division F of the International Astronomical Union by the
          Minor Planet Center, Smithsonian Astrophysical Observatory,
                          Cambridge, MA 02138, U.S.A.

             Prepared using the Tamkin Foundation Computer Network

                              MPC at CFA.HARVARD.EDU
            URL http://www.minorplanetcenter.net/    ISSN 1523-6714


                             2005 CE41 = 2016 TA19
 
                           Revision to MPEC 2005-C49
 
Orbital elements:
2005 CE41 = 2016 TA19                                    Earth MOID = 0.0041 AU
Id. F. Manca
Epoch 2016 July 31.0 TT = JDT 2457600.5                 MPC
M 308.53885              (2000.0)            P               Q
n   0.41352485     Peri.  303.26323     +0.05927432     -0.99781890
a   1.7843018      Node   143.30470     +0.93127948     +0.04479528
e   0.5185009      Incl.    2.78666     +0.35945108     +0.04848535
P   2.38           H   23.8           G   0.15           U   1
Residuals in seconds of arc
050209 704  0.1-  0.2-    050214 A48  0.3+  0.1+    050218 F65  0.4-  0.1+
050209 704  0.4-  0.1-    050214 A48  0.7+  0.5+    050218 F65  0.3-  0.2-
050209 704  0.8-  0.2+    050214 A48  0.0   0.2+    050218 941  0.4+  0.4+
050209 704  0.9+  0.4+    050214 A48  0.0   0.5+    050218 941  0.7+  0.4+
050209 704  0.3+  0.1-    050214 A48  0.3-  0.1-    050218 941  1.0+  0.3+
050211 649  0.4-  0.3-    050214 A48  0.7+  0.1+    050218 941  0.8+  0.6+
050211 649  0.1+  0.4-    050214 J95  0.1+  0.1-    050219 J95  0.7-  0.1-
050211 649  0.8-  0.4-    050214 J95  0.2+  0.4+    050219 J95  0.3-  0.4-
050211 649  0.3-  0.2-    050214 J95  0.0   0.1+    050220 J95  0.3-  0.8-
050211 649  0.5-  0.7-    050215 A48  0.6-  0.7+    050311 715  0.8+  0.2+
050211 649  0.9-  0.2-    050215 A48  0.5-  0.0     050311 715 (2.1+  0.3-)
050211 649  0.6-  0.4-    050215 A48  0.1+  1.0+    161007 F51  0.3-  0.2+
050211 734  0.6+  0.1-    050215 A48  0.3-  0.6+    161008 F51  0.1-  0.0
050211 734  0.2+  0.0     050215 560 (1.8+  0.4+)   161008 F51  0.3-  0.2+
050211 734  0.0   0.1-    050215 560 (2.3+  0.7+)   161008 F51  0.2-  0.1-
050211 734  0.3+  0.3+    050215 560 (3.1+  0.2+)   161008 F51  0.0   0.0
050211 734  0.3+  0.2+    050215 A48  0.1-  0.5+    161009 104  0.1+  0.4-
050211 734  0.8+  0.0     050215 A48  0.6+  0.4+    161009 104  0.5+  0.1-
050211 734  0.4+  0.2-    050215 A48  0.3-  0.4+    161009 104  0.2+  0.0
050211 734  0.8+  0.0     050215 A48  0.1+  0.6+    161009 568  0.0   0.0
050212 649  0.3-  0.0     050216 F65  0.0   0.3+    161009 568  0.0   0.0
050212 649  0.2-  0.2+    050216 F65  0.2+  0.2+    161009 568  0.0   0.0
050212 649  0.6-  0.4-    050216 F65  0.2+  0.4+    161009 474  0.3-  0.0
050212 649  0.3-  0.3-    050216 F65  0.0   0.2+    161009 474  0.0   0.1-
050212 J95  0.1+  0.3+    050216 F65  0.2-  0.3+    161009 474  0.1+  0.0
050212 J95  0.4+  0.6-    050216 F65  0.4+  0.4+    161009 474  0.2-  0.1-
050212 J95  0.1-  0.0     050216 A53  0.7+  1.0+    161009 I93  0.3-  0.2+
050213 J95  0.0   0.1+    050216 A53  0.6+  0.7+    161009 I93  0.3+  0.2+
050213 J95  0.1-  0.1+    050216 A53  0.2+  0.1+    161009 I93  1.2+  0.5-
050213 J95  0.1-  0.3-    050216 A53  0.2-  0.8+    161010 H21  0.7+  0.5+
050214 734 (0.9-  6.2-)   050218 F65  0.2-  0.2-    161010 H21  0.6+  0.1+
050214 734 (1.2+  8.7-)   050218 F65  0.3+  0.1+    161010 H21  0.4+  0.1-
050214 734 (0.2-  8.8-)   050218 F65  0.5-  0.3+

Ephemeris:
2005 CE41                a,e,i = 1.78, 0.52, 3                   q = 0.8591
Date    TT    R. A. (2000) Decl.     Delta      r     Elong.  Phase     V
2016 09 11    01 08 35.0 +01 06 42   0.3426  1.3184   151.7    21.2    23.1
...
2016 09 26    01 31 56.2 -02 06 06   0.2100  1.2017   159.6    16.9    21.7
...
2016 10 04    01 53 35.9 -05 52 39   0.1491  1.1408   159.0    18.3    20.9
...
2016 10 10    02 22 49.0 -10 55 26   0.1083  1.0964   153.4    24.1    20.3
2016 10 11    02 29 49.3 -12 04 56   0.1020  1.0892   151.7    25.7    20.2
2016 10 12    02 37 44.7 -13 21 50   0.09591 1.0820   149.8    27.6    20.1
...
2016 10 18    03 57 41.6 -24 18 12   0.06508 1.0400   130.9    46.4    19.7
...
2016 10 26    08 05 47.0 -34 32 12   0.05689 0.9881    82.3    94.5    20.9
...
2016 11 10    11 32 36.1 -17 59 59   0.1342  0.9090    49.6   124.0    24.4

Gareth V. Williams           (C) Copyright 2016 MPC           M.P.E.C. 2016-T106




More information about the Iaude mailing list